Flag for Germany Weather past 2 weeks in Koblenz, Rhineland-Palatinate, Germany

Now
39 °F

Scattered clouds.


Feels Like: 30 °F
Forecast: 35 / 47 °F
Wind: 17 mph from Northwest

Location: Buechel

Current Time: Apr 1, 2015 at 6:45:51 PM

Latest Report: Apr 1, 2015 at 5:20 PM


Visibility: N/A

Pressure: 30.09 "Hg

Humidity: 70%

Dew point: 30 °F

Location of KoblenzLocation

Historic Weather in Koblenz — Graph

°F

Koblenz temperature yesterday

Maximum temperature yesterday: 50 °F (at 6:20 AM)
Minimum temperature yesterday: 36 °F (at 10:20 PM)
Average temperature yesterday: 44 °F

Past Weeks' High & Low Weather Summary

 TemperatureHumidityPressure
High61 °F (Mar 18, 2:20 PM)100% (Mar 19, 2:20 AM)30.30 "Hg (Mar 19, 2:20 AM)
Low27 °F (Mar 23, 4:20 AM)39% (Mar 18, 2:20 PM)29.36 "Hg (Mar 31, 6:20 AM)
Average41 °F80%29.93 "Hg
* Reported Mar 17 4:20 PM — Apr 1 5:20 PM, Koblenz, Weather by CustomWeather, © 2015

Note: Actual official high and low records may vary slightly from our data, if they occured in-between our weather recording intervals... More about our weather records

Advertising

Koblenz weather history for previous 24 hours

 ConditionsComfort  
Time TempWeatherWind HumidityBarometerVisibility
5:20 PM
Wed, Apr 1
39 °FScattered clouds.17 mph70%30.09 "HgN/A
4:20 PM39 °FScattered showers. Scattered clouds.17 mph70%30.07 "HgN/A
3:54 PM39 °FPartly sunny.18 mph70%30.07 "Hg4 mi
3:20 PM37 °FScattered showers. Scattered clouds.16 mph87%30.07 "HgN/A
2:59 PM37 °FSnow showers. Fog.16 mph81%30.07 "Hg3 mi
2:20 PM34 °FSnow flurries. Fog.16 mph93%30.07 "Hg2 mi
2:00 PM34 °FSnow showers. Broken clouds.15 mph93%30.07 "Hg1 mi
1:20 PM39 °FSnow flurries. Broken clouds.17 mph65%30.07 "Hg6 mi
12:20 PM39 °FSnow flurries. Broken clouds.17 mph65%30.07 "Hg4 mi
11:20 AM39 °FSnow flurries. Broken clouds.22 mph65%30.04 "HgN/A
10:20 AM37 °FBroken clouds.17 mph70%30.04 "HgN/A
9:20 AM34 °FBroken clouds.14 mph87%30.01 "HgN/A
8:20 AM34 °FSnow flurries. Partly sunny.17 mph81%29.98 "Hg5 mi
8:01 AM34 °FPassing clouds.13 mph81%29.98 "Hg5 mi
7:20 AM34 °FSnow flurries. Partly cloudy.14 mph81%29.95 "Hg2 mi
6:20 AM34 °FSnow flurries. Passing clouds.16 mph75%29.92 "HgN/A
5:20 AM36 °FSnow flurries. Passing clouds.13 mph75%29.92 "Hg5 mi
4:20 AM36 °FPassing clouds.10 mph81%29.89 "HgN/A
3:20 AM36 °FChilly.16 mph81%29.89 "HgN/A
2:20 AM36 °FChilly.15 mph81%29.89 "HgN/A
1:20 AM36 °FChilly.12 mph87%29.86 "HgN/A
12:20 AM36 °FChilly.9 mph93%29.86 "Hg5 mi
11:20 PM
Tue, Mar 31
36 °FChilly.9 mph93%29.83 "Hg5 mi
10:20 PM36 °FChilly.15 mph93%29.83 "Hg6 mi
9:20 PM37 °FChilly.16 mph87%29.83 "Hg4 mi
8:20 PM39 °FChilly.20 mph75%29.80 "HgN/A
7:20 PM43 °FQuite cool.16 mph57%29.77 "HgN/A
6:20 PM46 °FCool.20 mph43%29.74 "HgN/A
Weather by CustomWeather, © 2015

See weather overviewHow to use our weather pages